Find Starlink 32250

NORAD ID: 60425 Int'l Des: 2024-144 Owner: SPXS Country: US Constellation: starlink operational
LEOCIRCULAR

实时位置

正在加载3D地球...

关于 Starlink 32250

正在加载描述...

即将过境

Passes for default location (London). Set your location on the main map for personalized predictions.

高度历史

Loading altitude history...

两行轨道根数

1 60425U 24144A 26123.54242172 .00000874 00000-0 41649-4 0 9990
2 60425 53.1618 322.6128 0001185 86.4669 273.6468 15.30193450 96801
Epoch: May 3, 2026 • Age: 7 hours

当前状态

高度 478.6 km
速度 7.63 km/s
星下点 -11.59°S, 13.72°W
发射日期 Aug 12, 2024
运行时间 1.7 years
类型 internet

技术详情

分类 Payload
质量 730.00 kg
干质量 700.00 kg
总质量 730.00 kg
长度 0.30 m
直径 4.10 m
跨度 29.00 m
形状 Box + pan
制造商 SPXS
平台类型 Starlink V2M
阶段状态 In Orbit
所有者/国家 SPXS/US

Most Searched